C/2018 N2 ( ASASSN )

Japanese version
Home page
Updated on February 27, 2020

---------------------------------------------------------------------

* Profile

Discovery Date July 7, 2018
Magnitude 16.4 mag
Discoverer All-Sky Automated Survey for Supernovae (ASASSN) program

* Pictures

* Orbital Elements

Epoch 2019 Nov. 13.0 TT = JDT 2458800.5
T 2019 Nov. 10.96114 TT                                 Williams
q   3.1246393            (2000.0)            P               Q
z  -0.0000506      Peri.   24.39589     +0.78558506     -0.45744686
 +/-0.0000003      Node    25.25926     +0.27011645     -0.35227808
e   1.0001582      Incl.   77.53197     +0.55668053     +0.81648180
From 2796 observations 2018 July 11-2020 Jan. 8, mean residual 0".4.

* Finding Charts

* Magnitudes Graph

        m1 = 5.5 + 5 log d + 8.0 log r

---------------------------------------------------------------------

The orbital elements are published on M.P.E.C. 2020-A105.
The charts are made with StellaNavigator Ver.10 (AstroArts).
The magnitudes graphs are made with Comet for Windows.

---------------------------------------------------------------------

Copyright(C) Seiichi Yoshida (comet@aerith.net). All rights reserved.